Change the Weather History Date:

Thursday, October 17, 2013

  Actual Average Record
Temperature  
Mean Temperature 48 °F 54 °F  
Max Temperature 59 °F 65 °F 85 °F (1963)
Min Temperature 37 °F 42 °F 25 °F (1991)
Degree Days  
Heating Degree Days 17 12  
Month to date heating degree days 90 157  
Since 1 July heating degree days 153 235  
Cooling Degree Days 0 0  
Month to date cooling degree days 33 12  
Year to date cooling degree days 1056 990  
Moisture  
Dew Point 42 °F    
Average Humidity 70    
Maximum Humidity 93    
Minimum Humidity 47    
Precipitation  
Precipitation 0.12 in 0.12 in 1.70 in (1967)
Month to date precipitation 1.38 1.95  
Year to date precipitation 35.61 36.65  
Sea Level Pressure  
Sea Level Pressure 29.96 in    
Wind  
Wind Speed 5 mph (WSW)    
Max Wind Speed 16 mph    
Max Gust Speed 22 mph    
Visibility 10 miles    
Events Rain    
T = Trace of Precipitation, MM = Missing Value Source: NWS Daily Summary

Daily Weather History Graph

Daily Weather History Graph

Search for Another Location

Airport or City:

Trip Planner

Search our weather history database for the weather conditions in past years. The results will help you decide how hot, cold, wet, or windy it might be!

Date:

Astronomy

Oct. 17, 2013 Rise Set
Actual Time 8:01 AM EDT 7:06 PM EDT
Civil Twilight 7:34 AM EDT 7:34 PM EDT
Nautical Twilight 7:03 AM EDT 8:05 PM EDT
Astronomical Twilight 6:31 AM EDT 8:36 PM EDT
Moon 6:20 PM EDT (10/17) 6:33 AM EDT (10/17)
Length of Visible Light 11h 59m
Length of Day
11h 05m
Waxing Gibbous, 98% of the Moon is Illuminated
Oct 17
Waxing Gibbous
Oct 18
Full
Oct 26
Last Quarter
Nov 3
New
Nov 10
First Quarter

Hourly Weather History & Observations

Time (EDT) Temp. Windchill Dew Point Humidity Pressure Visibility Wind Dir Wind Speed Gust Speed Precip Events Conditions
12:53 AM 42.1 °F - 39.0 °F 89% 29.99 in 10.0 mi Calm Calm - N/A   Clear
1:53 AM 42.1 °F - 39.0 °F 89% 29.99 in 10.0 mi Calm Calm - N/A   Clear
2:53 AM 39.0 °F - 37.0 °F 93% 29.98 in 10.0 mi Calm Calm - N/A   Clear
3:53 AM 37.9 °F - 36.0 °F 93% 29.96 in 7.0 mi Calm Calm - N/A   Clear
4:53 AM 43.0 °F - 39.9 °F 89% 29.96 in 10.0 mi Calm Calm - N/A   Mostly Cloudy
5:53 AM 45.0 °F 42.6 °F 42.1 °F 90% 29.96 in 10.0 mi WSW 4.6 mph - 0.03 in Rain Light Rain
6:53 AM 45.0 °F - 43.0 °F 93% 29.96 in 5.0 mi Calm Calm - 0.02 in Rain Light Rain
7:53 AM 45.0 °F 43.5 °F 43.0 °F 93% 29.94 in 8.0 mi South 3.5 mph - 0.04 in   Overcast
8:17 AM 46.4 °F 44.3 °F 44.6 °F 93% 29.96 in 9.0 mi WSW 4.6 mph - 0.01 in Rain Light Rain
8:53 AM 46.0 °F 43.1 °F 44.1 °F 93% 29.97 in 9.0 mi SSW 5.8 mph - 0.02 in   Overcast
9:53 AM 48.0 °F - 45.0 °F 89% 29.96 in 10.0 mi SW 4.6 mph - N/A   Overcast
10:45 AM 48.2 °F - 46.4 °F 93% 29.96 in 10.0 mi SW 6.9 mph - 0.01 in   Overcast
10:53 AM 48.9 °F - 46.0 °F 90% 29.96 in 10.0 mi SW 5.8 mph - 0.01 in   Overcast
11:53 AM 51.1 °F - 46.0 °F 83% 29.97 in 10.0 mi WSW 6.9 mph - N/A   Overcast
12:03 PM 51.8 °F - 44.6 °F 76% 29.96 in 10.0 mi WSW 10.4 mph 16.1 mph N/A   Overcast
12:11 PM 51.8 °F - 46.4 °F 82% 29.96 in 10.0 mi WSW 13.8 mph - N/A   Overcast
12:19 PM 51.8 °F - 44.6 °F 76% 29.96 in 10.0 mi WSW 11.5 mph - N/A   Overcast
12:53 PM 52.0 °F - 45.0 °F 77% 29.96 in 10.0 mi West 10.4 mph - N/A   Overcast
1:00 PM 51.8 °F - 44.6 °F 76% 29.95 in 10.0 mi West 11.5 mph - N/A   Overcast
1:32 PM 53.6 °F - 44.6 °F 72% 29.95 in 10.0 mi WSW 15.0 mph 19.6 mph N/A   Overcast
1:53 PM 53.1 °F - 43.0 °F 69% 29.95 in 10.0 mi West 15.0 mph - N/A   Overcast
2:06 PM 53.6 °F - 42.8 °F 67% 29.93 in 10.0 mi West 10.4 mph - N/A   Overcast
2:14 PM 53.6 °F - 42.8 °F 67% 29.93 in 10.0 mi West 9.2 mph - N/A   Overcast
2:53 PM 55.0 °F - 43.0 °F 64% 29.93 in 10.0 mi West 9.2 mph - N/A   Overcast
3:53 PM 57.0 °F - 39.9 °F 53% 29.93 in 10.0 mi West 9.2 mph - N/A   Mostly Cloudy
4:53 PM 59.0 °F - 39.0 °F 48% 29.92 in 10.0 mi West 13.8 mph 19.6 mph N/A   Mostly Cloudy
5:53 PM 57.0 °F - 37.9 °F 49% 29.93 in 10.0 mi West 6.9 mph - N/A   Partly Cloudy
6:53 PM 55.0 °F - 37.9 °F 53% 29.94 in 10.0 mi WSW 6.9 mph - N/A   Partly Cloudy
7:53 PM 50.0 °F - 39.0 °F 66% 29.95 in 10.0 mi SSW 4.6 mph - N/A   Clear
8:53 PM 48.0 °F - 39.9 °F 74% 29.96 in 10.0 mi SSW 3.5 mph - N/A   Clear
9:53 PM 44.1 °F - 37.9 °F 79% 29.97 in 10.0 mi Calm Calm - N/A   Clear
10:53 PM 44.1 °F - 39.0 °F 82% 29.97 in 10.0 mi Calm Calm - N/A   Clear
11:53 PM 44.1 °F - 39.0 °F 82% 29.97 in 10.0 mi Calm Calm - N/A   Clear